QPF
0.04 0.04 0.05 0.06 0.04 0.04 0.03 0.02 0.03 0.04 0.07 0.10 0.07 0.05 0.04 0.03 0.03 0.03 0.02 0.01 0.01 0.01 0.01 0.01 0.01 0.01 0.01 0.01 0.01 0.01 0.01 0.01 0.01 0.01 0.01 0.01 0.01 0.01 0.01 0.01 0.01 0.01 0.01
0.05 0.06 0.05 0.06 0.06 0.04 0.04 0.02 0.02 0.03 0.04 0.07 0.07 0.05 0.05 0.05 0.03 0.03 0.02 0.02 0.02 0.01 0.01 0.01 0.00 0.01 0.01 0.01 0.01 0.01 0.01 0.01 0.01 0.01 0.01 0.01 0.01 0.01 0.01 0.01 0.01 0.01 0.02
0.07 0.08 0.07 0.06 0.07 0.06 0.05 0.03 0.03 0.04 0.04 0.07 0.09 0.07 0.05 0.06 0.05 0.04 0.03 0.03 0.02 0.02 0.01 0.01 0.00 0.01 0.01 0.01 0.01 0.01 0.01 0.01 0.01 0.01 0.01 0.01 0.01 0.01 0.01 0.01 0.01 0.02 0.02
0.08 0.10 0.09 0.07 0.06 0.07 0.06 0.04 0.03 0.03 0.04 0.05 0.07 0.08 0.06 0.05 0.06 0.06 0.04 0.03 0.03 0.02 0.01 0.00 0.00 0.01 0.01 0.01 0.01 0.01 0.01 0.01 0.01 0.01 0.01 0.01 0.01 0.01 0.01 0.01 0.02 0.03 0.03
0.07 0.11 0.10 0.08 0.07 0.08 0.07 0.05 0.03 0.02 0.03 0.03 0.05 0.06 0.06 0.06 0.06 0.08 0.06 0.04 0.03 0.03 0.02 0.01 0.00 0.00 0.01 0.02 0.02 0.01 0.02 0.01 0.01 0.01 0.01 0.01 0.01 0.01 0.01 0.02 0.02 0.03 0.03
0.05 0.09 0.11 0.10 0.09 0.10 0.10 0.08 0.05 0.04 0.03 0.03 0.04 0.05 0.05 0.05 0.06 0.07 0.08 0.06 0.03 0.03 0.04 0.03 0.01 0.01 0.01 0.01 0.02 0.01 0.01 0.02 0.02 0.01 0.01 0.01 0.01 0.01 0.02 0.02 0.03 0.03 0.03
0.04 0.05 0.07 0.12 0.12 0.11 0.10 0.10 0.08 0.05 0.03 0.02 0.03 0.04 0.05 0.06 0.06 0.06 0.06 0.07 0.04 0.03 0.03 0.04 0.04 0.02 0.01 0.01 0.01 0.01 0.01 0.01 0.02 0.01 0.02 0.02 0.01 0.01 0.02 0.02 0.02 0.02 0.03
0.05 0.06 0.06 0.10 0.13 0.14 0.13 0.10 0.08 0.05 0.02 0.02 0.02 0.03 0.04 0.06 0.06 0.07 0.06 0.04 0.05 0.04 0.03 0.03 0.05 0.05 0.02 0.01 0.01 0.01 0.01 0.01 0.01 0.01 0.02 0.02 0.02 0.02 0.02 0.02 0.02 0.03 0.03
0.04 0.06 0.07 0.08 0.10 0.13 0.15 0.13 0.08 0.04 0.03 0.02 0.01 0.02 0.02 0.03 0.04 0.05 0.05 0.03 0.03 0.03 0.02 0.02 0.02 0.03 0.03 0.01 0.01 0.01 0.01 0.00 0.01 0.01 0.02 0.02 0.02 0.02 0.02 0.02 0.02 0.03 0.03
0.03 0.03 0.05 0.06 0.06 0.09 0.12 0.14 0.12 0.08 0.05 0.04 0.02 0.01 0.02 0.01 0.02 0.03 0.03 0.03 0.02 0.02 0.01 0.01 0.01 0.00 0.00 0.00 0.00 0.00 0.00 0.00 0.00 0.01 0.01 0.02 0.02 0.03 0.03 0.03 0.03 0.04 0.05
0.02 0.02 0.03 0.04 0.04 0.05 0.06 0.09 0.12 0.13 0.09 0.06 0.05 0.03 0.01 0.01 0.01 0.02 0.02 0.02 0.02 0.02 0.01 0.01 0.00 0.00 0.00 0.00 0.00 0.00 0.00 0.00 0.00 0.01 0.01 0.01 0.02 0.03 0.03 0.04 0.04 0.04 0.05
0.02 0.02 0.02 0.03 0.03 0.03 0.05 0.06 0.07 0.12 0.12 0.08 0.07 0.06 0.04 0.03 0.02 0.02 0.02 0.02 0.02 0.02 0.01 0.01 0.01 0.00 0.00 0.00 0.00 0.00 0.00 0.00 0.00 0.00 0.01 0.01 0.01 0.02 0.02 0.03 0.03 0.03 0.03
0.02 0.03 0.03 0.03 0.03 0.03 0.03 0.04 0.05 0.07 0.09 0.08 0.06 0.06 0.05 0.05 0.04 0.04 0.05 0.05 0.04 0.04 0.03 0.02 0.01 0.00 0.00 0.00 0.00 0.00 0.00 0.00 0.00 0.00 0.00 0.01 0.01 0.01 0.01 0.02 0.02 0.02 0.03
0.03 0.02 0.03 0.03 0.03 0.02 0.02 0.03 0.04 0.06 0.07 0.06 0.05 0.05 0.04 0.04 0.04 0.05 0.05 0.04 0.04 0.03 0.03 0.03 0.02 0.01 0.01 0.00 0.00 0.00 0.00 0.00 0.01 0.00 0.01 0.01 0.01 0.01 0.01 0.02 0.01 0.01 0.02
0.05 0.03 0.03 0.03 0.03 0.02 0.02 0.02 0.03 0.05 0.06 0.06 0.05 0.04 0.03 0.02 0.02 0.02 0.02 0.02 0.02 0.02 0.01 0.01 0.01 0.01 0.01 0.01 0.00 0.00 0.00 0.00 0.01 0.01 0.01 0.01 0.01 0.01 0.01 0.01 0.01 0.01 0.02
0.05 0.05 0.04 0.03 0.02 0.02 0.02 0.03 0.03 0.04 0.04 0.05 0.06 0.05 0.03 0.02 0.01 0.01 0.00 0.01 0.01 0.01 0.01 0.01 0.00 0.00 0.00 0.00 0.00 0.00 0.00 0.00 0.01 0.01 0.01 0.01 0.01 0.01 0.01 0.01 0.01 0.01 0.01
0.04 0.04 0.04 0.04 0.03 0.03 0.02 0.03 0.03 0.03 0.04 0.04 0.05 0.05 0.03 0.01 0.01 0.01 0.01 0.00 0.01 0.01 0.01 0.01 0.00 0.00 0.00 0.00 0.00 0.00 0.00 0.00 0.00 0.00 0.01 0.01 0.01 0.01 0.01 0.01 0.01 0.01 0.01
0.04 0.03 0.03 0.02 0.03 0.03 0.03 0.03 0.03 0.03 0.03 0.04 0.04 0.05 0.05 0.02 0.01 0.01 0.01 0.01 0.01 0.01 0.01 0.01 0.01 0.00 0.00 0.00 0.00 0.00 0.00 0.00 0.00 0.00 0.01 0.01 0.00 0.00 0.00 0.01 0.01 0.01 0.01
0.03 0.02 0.02 0.02 0.02 0.02 0.02 0.02 0.03 0.03 0.03 0.03 0.03 0.03 0.04 0.04 0.02 0.01 0.01 0.01 0.01 0.01 0.01 0.01 0.01 0.01 0.00 0.00 0.00 0.00 0.00 0.00 0.00 0.00 0.00 0.00 0.00 0.00 0.00 0.01 0.01 0.01 0.01
0.02 0.02 0.02 0.02 0.02 0.03 0.02 0.02 0.02 0.03 0.03 0.03 0.03 0.03 0.03 0.04 0.03 0.01 0.01 0.01 0.01 0.01 0.01 0.01 0.01 0.01 0.00 0.00 0.00 0.00 0.00 0.00 0.00 0.00 0.00 0.00 0.00 0.00 0.00 0.00 0.00 0.00 0.01
0.02 0.02 0.02 0.02 0.02 0.03 0.02 0.02 0.02 0.02 0.02 0.02 0.03 0.03 0.03 0.03 0.04 0.03 0.02 0.02 0.01 0.01 0.01 0.01 0.01 0.01 0.00 0.00 0.00 0.00 0.01 0.01 0.00 0.00 0.00 0.00 0.00 0.00 0.00 0.00 0.00 0.00 0.01
0.03 0.02 0.02 0.02 0.02 0.02 0.02 0.03 0.03 0.03 0.02 0.02 0.02 0.02 0.03 0.03 0.03 0.04 0.03 0.02 0.02 0.01 0.01 0.01 0.01 0.01 0.00 0.00 0.00 0.01 0.01 0.01 0.01 0.00 0.00 0.00 0.00 0.00 0.00 0.00 0.00 0.01 0.01
0.03 0.03 0.02 0.02 0.03 0.02 0.03 0.03 0.03 0.03 0.02 0.02 0.02 0.02 0.02 0.02 0.02 0.02 0.03 0.03 0.02 0.01 0.01 0.01 0.01 0.00 0.00 0.00 0.01 0.01 0.01 0.01 0.01 0.00 0.00 0.00 0.00 0.00 0.00 0.00 0.01 0.01 0.01
0.04 0.03 0.03 0.03 0.03 0.03 0.03 0.03 0.03 0.03 0.02 0.02 0.02 0.02 0.02 0.02 0.02 0.01 0.02 0.03 0.03 0.01 0.01 0.00 0.00 0.00 0.00 0.00 0.01 0.01 0.01 0.01 0.00 0.00 0.00 0.00 0.00 0.00 0.00 0.00 0.00 0.01 0.01
0.04 0.03 0.03 0.03 0.03 0.03 0.04 0.03 0.03 0.03 0.03 0.02 0.02 0.02 0.02 0.02 0.02 0.01 0.01 0.02 0.02 0.01 0.01 0.01 0.00 0.00 0.01 0.00 0.00 0.01 0.01 0.01 0.01 0.00 0.00 0.00 0.00 0.00 0.00 0.00 0.01 0.01 0.01
0.05 0.04 0.04 0.04 0.03 0.04 0.04 0.03 0.03 0.02 0.02 0.02 0.02 0.02 0.02 0.02 0.02 0.01 0.01 0.01 0.01 0.01 0.01 0.01 0.01 0.00 0.00 0.00 0.00 0.01 0.01 0.02 0.02 0.01 0.00 0.01 0.01 0.01 0.01 0.00 0.01 0.01 0.01
MSLP
1020.28 1020.38 1020.41 1020.39 1020.33 1020.25 1020.16 1020.07 1019.99 1019.91 1019.83 1019.74 1019.65 1019.56 1019.49 1019.46 1019.47 1019.53 1019.64 1019.76 1019.88 1019.97 1020.00 1019.96 1019.85 1019.69 1019.50 1019.31 1019.12 1018.97 1018.85 1018.75 1018.66 1018.57 1018.46 1018.34 1018.20 1018.04 1017.87 1017.69 1017.49 1017.29 1017.06
1019.99 1020.11 1020.17 1020.17 1020.14 1020.07 1019.99 1019.91 1019.84 1019.77 1019.71 1019.64 1019.59 1019.54 1019.50 1019.50 1019.53 1019.60 1019.70 1019.82 1019.93 1020.02 1020.06 1020.04 1019.96 1019.83 1019.66 1019.47 1019.29 1019.11 1018.96 1018.83 1018.71 1018.59 1018.47 1018.33 1018.18 1018.02 1017.84 1017.65 1017.45 1017.23 1016.99
1019.67 1019.80 1019.89 1019.93 1019.93 1019.90 1019.85 1019.79 1019.73 1019.68 1019.64 1019.61 1019.58 1019.55 1019.54 1019.55 1019.57 1019.63 1019.71 1019.80 1019.89 1019.96 1020.01 1020.01 1019.96 1019.87 1019.74 1019.59 1019.42 1019.24 1019.07 1018.91 1018.76 1018.61 1018.46 1018.31 1018.14 1017.96 1017.77 1017.57 1017.35 1017.12 1016.87
1019.34 1019.49 1019.62 1019.70 1019.75 1019.76 1019.74 1019.71 1019.67 1019.64 1019.61 1019.59 1019.58 1019.57 1019.56 1019.56 1019.56 1019.58 1019.62 1019.66 1019.72 1019.77 1019.82 1019.84 1019.83 1019.79 1019.71 1019.60 1019.47 1019.32 1019.15 1018.98 1018.80 1018.62 1018.43 1018.24 1018.05 1017.85 1017.64 1017.41 1017.18 1016.93 1016.68
1019.03 1019.20 1019.36 1019.50 1019.60 1019.65 1019.67 1019.67 1019.64 1019.62 1019.59 1019.58 1019.56 1019.54 1019.52 1019.50 1019.47 1019.45 1019.43 1019.43 1019.44 1019.46 1019.50 1019.54 1019.57 1019.58 1019.57 1019.52 1019.43 1019.31 1019.16 1018.98 1018.78 1018.57 1018.36 1018.14 1017.91 1017.68 1017.44 1017.20 1016.94 1016.68 1016.42
1018.71 1018.92 1019.13 1019.32 1019.47 1019.57 1019.62 1019.63 1019.61 1019.58 1019.55 1019.52 1019.49 1019.46 1019.43 1019.38 1019.32 1019.25 1019.18 1019.12 1019.09 1019.08 1019.10 1019.15 1019.21 1019.27 1019.31 1019.32 1019.29 1019.21 1019.09 1018.91 1018.71 1018.48 1018.24 1017.99 1017.73 1017.47 1017.20 1016.93 1016.65 1016.38 1016.10
1018.39 1018.63 1018.89 1019.14 1019.34 1019.48 1019.56 1019.58 1019.56 1019.52 1019.47 1019.42 1019.38 1019.33 1019.28 1019.22 1019.14 1019.03 1018.92 1018.82 1018.74 1018.70 1018.70 1018.74 1018.81 1018.91 1018.99 1019.05 1019.07 1019.03 1018.94 1018.78 1018.58 1018.34 1018.08 1017.80 1017.52 1017.23 1016.94 1016.65 1016.35 1016.06 1015.77
1018.03 1018.32 1018.63 1018.92 1019.17 1019.35 1019.45 1019.48 1019.46 1019.40 1019.34 1019.28 1019.23 1019.19 1019.14 1019.08 1018.99 1018.87 1018.74 1018.60 1018.48 1018.39 1018.36 1018.38 1018.44 1018.54 1018.65 1018.75 1018.80 1018.79 1018.73 1018.59 1018.40 1018.16 1017.90 1017.61 1017.31 1017.00 1016.70 1016.39 1016.07 1015.76 1015.45
1017.61 1017.93 1018.29 1018.63 1018.92 1019.14 1019.26 1019.31 1019.29 1019.23 1019.16 1019.11 1019.07 1019.05 1019.03 1018.99 1018.92 1018.81 1018.67 1018.51 1018.35 1018.23 1018.15 1018.12 1018.16 1018.24 1018.34 1018.44 1018.51 1018.53 1018.49 1018.38 1018.20 1017.98 1017.71 1017.42 1017.12 1016.80 1016.48 1016.16 1015.83 1015.50 1015.17
1017.11 1017.47 1017.86 1018.24 1018.57 1018.81 1018.97 1019.03 1019.03 1018.99 1018.94 1018.91 1018.91 1018.93 1018.95 1018.96 1018.94 1018.86 1018.73 1018.56 1018.38 1018.21 1018.07 1017.99 1017.97 1018.01 1018.08 1018.17 1018.23 1018.26 1018.24 1018.15 1017.99 1017.78 1017.53 1017.25 1016.94 1016.62 1016.29 1015.96 1015.61 1015.27 1014.92
1016.55 1016.92 1017.33 1017.73 1018.09 1018.37 1018.55 1018.65 1018.68 1018.67 1018.66 1018.68 1018.73 1018.81 1018.90 1018.98 1019.01 1018.97 1018.87 1018.70 1018.50 1018.29 1018.10 1017.96 1017.88 1017.86 1017.88 1017.93 1017.98 1018.01 1017.98 1017.91 1017.77 1017.58 1017.34 1017.06 1016.76 1016.43 1016.10 1015.75 1015.39 1015.03 1014.67
1015.94 1016.31 1016.72 1017.13 1017.51 1017.81 1018.03 1018.16 1018.23 1018.27 1018.32 1018.39 1018.51 1018.66 1018.82 1018.96 1019.06 1019.07 1019.01 1018.86 1018.65 1018.41 1018.18 1017.98 1017.84 1017.75 1017.72 1017.73 1017.75 1017.75 1017.73 1017.65 1017.52 1017.33 1017.10 1016.83 1016.52 1016.20 1015.85 1015.49 1015.11 1014.74 1014.36
1015.32 1015.66 1016.06 1016.47 1016.85 1017.17 1017.42 1017.59 1017.71 1017.80 1017.90 1018.03 1018.21 1018.43 1018.65 1018.86 1019.01 1019.08 1019.05 1018.93 1018.73 1018.49 1018.23 1017.99 1017.80 1017.66 1017.58 1017.54 1017.52 1017.49 1017.44 1017.36 1017.22 1017.03 1016.79 1016.52 1016.20 1015.86 1015.50 1015.12 1014.74 1014.34 1013.95
1014.70 1015.01 1015.38 1015.78 1016.16 1016.49 1016.76 1016.97 1017.13 1017.27 1017.41 1017.59 1017.82 1018.08 1018.35 1018.61 1018.81 1018.92 1018.94 1018.85 1018.68 1018.45 1018.19 1017.94 1017.72 1017.54 1017.42 1017.33 1017.27 1017.20 1017.12 1017.01 1016.85 1016.64 1016.39 1016.09 1015.77 1015.41 1015.03 1014.64 1014.23 1013.83 1013.43
1014.13 1014.40 1014.73 1015.10 1015.47 1015.81 1016.10 1016.33 1016.52 1016.69 1016.87 1017.08 1017.33 1017.61 1017.91 1018.19 1018.42 1018.57 1018.62 1018.58 1018.45 1018.25 1018.02 1017.78 1017.56 1017.38 1017.22 1017.10 1016.99 1016.88 1016.75 1016.60 1016.40 1016.16 1015.88 1015.56 1015.21 1014.83 1014.44 1014.03 1013.62 1013.20 1012.80
1013.61 1013.83 1014.14 1014.48 1014.84 1015.18 1015.47 1015.72 1015.93 1016.12 1016.31 1016.52 1016.77 1017.04 1017.33 1017.61 1017.85 1018.02 1018.11 1018.12 1018.04 1017.91 1017.73 1017.53 1017.33 1017.15 1016.98 1016.83 1016.68 1016.52 1016.34 1016.12 1015.88 1015.59 1015.28 1014.93 1014.55 1014.16 1013.75 1013.33 1012.91 1012.50 1012.10
1013.15 1013.34 1013.61 1013.93 1014.28 1014.61 1014.90 1015.16 1015.38 1015.57 1015.75 1015.95 1016.17 1016.41 1016.67 1016.92 1017.15 1017.33 1017.45 1017.51 1017.49 1017.43 1017.31 1017.18 1017.02 1016.86 1016.69 1016.51 1016.33 1016.11 1015.87 1015.61 1015.30 1014.97 1014.62 1014.24 1013.85 1013.44 1013.02 1012.60 1012.18 1011.77 1011.37
1012.74 1012.91 1013.16 1013.46 1013.78 1014.11 1014.40 1014.66 1014.87 1015.05 1015.22 1015.39 1015.56 1015.76 1015.97 1016.18 1016.39 1016.56 1016.71 1016.80 1016.85 1016.85 1016.81 1016.74 1016.64 1016.51 1016.35 1016.16 1015.94 1015.68 1015.39 1015.06 1014.71 1014.34 1013.95 1013.55 1013.14 1012.73 1012.31 1011.89 1011.47 1011.06 1010.66
1012.39 1012.53 1012.76 1013.04 1013.35 1013.66 1013.94 1014.19 1014.40 1014.57 1014.71 1014.85 1014.98 1015.12 1015.27 1015.44 1015.60 1015.77 1015.92 1016.04 1016.14 1016.21 1016.24 1016.24 1016.19 1016.09 1015.95 1015.75 1015.51 1015.22 1014.88 1014.51 1014.12 1013.72 1013.31 1012.90 1012.49 1012.07 1011.65 1011.23 1010.81 1010.39 1009.98
1012.10 1012.21 1012.40 1012.65 1012.94 1013.23 1013.50 1013.74 1013.94 1014.10 1014.22 1014.32 1014.40 1014.49 1014.59 1014.71 1014.83 1014.97 1015.11 1015.26 1015.39 1015.51 1015.60 1015.65 1015.65 1015.60 1015.47 1015.29 1015.03 1014.72 1014.36 1013.97 1013.56 1013.14 1012.73 1012.31 1011.90 1011.48 1011.06 1010.64 1010.20 1009.76 1009.33
1011.85 1011.92 1012.07 1012.28 1012.53 1012.79 1013.04 1013.26 1013.45 1013.59 1013.70 1013.77 1013.83 1013.87 1013.93 1013.99 1014.07 1014.18 1014.31 1014.45 1014.60 1014.75 1014.89 1014.98 1015.03 1015.01 1014.92 1014.75 1014.51 1014.20 1013.84 1013.45 1013.03 1012.62 1012.20 1011.79 1011.37 1010.96 1010.53 1010.08 1009.62 1009.15 1008.67
1011.67 1011.67 1011.76 1011.91 1012.10 1012.32 1012.53 1012.73 1012.91 1013.04 1013.13 1013.19 1013.22 1013.24 1013.25 1013.27 1013.32 1013.39 1013.49 1013.62 1013.78 1013.94 1014.10 1014.23 1014.31 1014.33 1014.28 1014.14 1013.93 1013.65 1013.31 1012.94 1012.54 1012.13 1011.73 1011.32 1010.90 1010.47 1010.02 1009.54 1009.03 1008.51 1007.97
1011.54 1011.47 1011.47 1011.54 1011.66 1011.81 1011.98 1012.15 1012.30 1012.42 1012.51 1012.56 1012.58 1012.58 1012.56 1012.55 1012.56 1012.59 1012.67 1012.77 1012.92 1013.08 1013.25 1013.40 1013.52 1013.58 1013.57 1013.47 1013.31 1013.07 1012.77 1012.44 1012.07 1011.69 1011.29 1010.88 1010.45 1010.00 1009.51 1008.98 1008.41 1007.82 1007.21
1011.47 1011.31 1011.21 1011.19 1011.22 1011.29 1011.40 1011.52 1011.64 1011.75 1011.83 1011.88 1011.89 1011.89 1011.86 1011.83 1011.81 1011.81 1011.85 1011.93 1012.05 1012.21 1012.38 1012.54 1012.69 1012.78 1012.82 1012.78 1012.67 1012.49 1012.24 1011.95 1011.62 1011.25 1010.87 1010.45 1010.00 1009.51 1008.97 1008.38 1007.75 1007.08 1006.40
1011.44 1011.19 1011.00 1010.87 1010.80 1010.79 1010.83 1010.90 1010.98 1011.06 1011.13 1011.18 1011.20 1011.19 1011.16 1011.12 1011.08 1011.06 1011.07 1011.13 1011.23 1011.37 1011.54 1011.71 1011.87 1012.01 1012.08 1012.10 1012.04 1011.91 1011.72 1011.47 1011.17 1010.82 1010.43 1010.00 1009.52 1008.98 1008.39 1007.74 1007.04 1006.30 1005.56
1011.46 1011.12 1010.83 1010.61 1010.45 1010.35 1010.31 1010.32 1010.36 1010.41 1010.47 1010.51 1010.53 1010.53 1010.50 1010.46 1010.41 1010.38 1010.38 1010.41 1010.49 1010.62 1010.78 1010.96 1011.13 1011.29 1011.40 1011.45 1011.44 1011.36 1011.21 1010.99 1010.70 1010.36 1009.97 1009.51 1008.99 1008.41 1007.77 1007.07 1006.31 1005.53 1004.73
Thickness
5668 5668 5667 5668 5669 5670 5670 5670 5671 5672 5673 5673 5672 5671 5670 5669 5668 5665 5663 5662 5661 5659 5657 5655 5653 5652 5650 5648 5646 5644 5643 5641 5640 5638 5637 5635 5634 5633 5631 5630 5629 5628 5627
5663 5662 5662 5662 5663 5663 5664 5665 5665 5665 5666 5666 5666 5665 5664 5663 5662 5660 5657 5655 5654 5652 5650 5647 5646 5644 5643 5641 5639 5637 5636 5634 5633 5631 5630 5628 5627 5626 5625 5623 5622 5621 5620
5656 5656 5655 5655 5656 5657 5658 5659 5659 5659 5659 5659 5659 5659 5658 5657 5656 5654 5652 5650 5647 5645 5642 5640 5638 5636 5635 5633 5631 5629 5628 5627 5625 5624 5622 5621 5619 5618 5617 5616 5615 5614 5613
5649 5649 5649 5649 5649 5650 5651 5652 5652 5651 5651 5651 5652 5652 5652 5651 5650 5648 5646 5644 5641 5638 5636 5633 5631 5629 5627 5625 5623 5622 5620 5619 5617 5616 5615 5613 5612 5610 5609 5608 5607 5607 5606
5641 5641 5642 5642 5643 5643 5643 5644 5644 5644 5644 5643 5644 5645 5645 5644 5643 5642 5640 5637 5634 5632 5629 5626 5623 5621 5619 5617 5615 5614 5612 5611 5609 5608 5607 5605 5604 5603 5602 5601 5600 5599 5598
5633 5634 5635 5636 5635 5635 5635 5636 5636 5637 5637 5636 5637 5637 5637 5637 5637 5635 5633 5631 5628 5625 5622 5619 5616 5614 5611 5609 5607 5605 5604 5603 5601 5600 5598 5597 5596 5595 5593 5593 5592 5591 5590
5625 5627 5628 5629 5629 5628 5628 5628 5628 5628 5628 5629 5627 5626 5627 5628 5628 5627 5625 5623 5621 5618 5615 5612 5609 5606 5603 5601 5599 5597 5596 5594 5593 5592 5590 5589 5588 5586 5585 5585 5583 5582 5581
5617 5620 5621 5622 5622 5622 5621 5621 5621 5620 5620 5621 5620 5618 5616 5616 5617 5619 5617 5615 5613 5610 5607 5604 5601 5598 5595 5593 5590 5588 5587 5586 5585 5583 5582 5581 5580 5578 5577 5576 5575 5574 5572
5610 5612 5613 5615 5615 5615 5614 5614 5615 5614 5613 5614 5615 5613 5610 5608 5607 5608 5608 5606 5604 5602 5599 5597 5594 5590 5587 5585 5582 5580 5578 5577 5576 5575 5574 5572 5571 5570 5568 5567 5565 5564 5562
5602 5604 5606 5607 5608 5608 5608 5607 5607 5608 5607 5606 5606 5607 5607 5605 5601 5597 5597 5597 5596 5593 5591 5589 5587 5583 5580 5577 5575 5572 5570 5569 5567 5566 5565 5564 5562 5561 5559 5557 5555 5554 5552
5594 5597 5598 5599 5600 5601 5601 5601 5601 5600 5600 5600 5599 5599 5599 5598 5596 5592 5588 5587 5586 5585 5583 5581 5579 5576 5573 5570 5567 5565 5563 5561 5559 5557 5556 5554 5553 5551 5549 5547 5545 5543 5541
5585 5588 5589 5591 5592 5593 5594 5594 5594 5594 5593 5593 5593 5592 5592 5590 5587 5585 5581 5579 5577 5576 5575 5573 5571 5569 5565 5562 5559 5557 5554 5552 5550 5548 5546 5545 5543 5541 5539 5537 5534 5532 5530
5576 5579 5581 5582 5584 5585 5586 5587 5587 5586 5586 5585 5585 5585 5585 5584 5583 5580 5575 5571 5569 5568 5567 5565 5563 5561 5558 5555 5551 5548 5546 5543 5542 5540 5538 5535 5533 5531 5529 5526 5524 5521 5519
5568 5570 5572 5573 5575 5576 5577 5579 5579 5579 5578 5578 5578 5577 5576 5576 5575 5572 5568 5564 5560 5558 5557 5556 5554 5552 5549 5546 5543 5540 5537 5535 5533 5531 5528 5526 5524 5521 5519 5516 5513 5510 5507
5559 5561 5562 5564 5566 5567 5569 5570 5570 5570 5570 5570 5570 5569 5568 5567 5566 5564 5562 5558 5553 5549 5547 5547 5544 5543 5540 5537 5534 5532 5529 5526 5524 5522 5520 5517 5514 5512 5509 5506 5503 5499 5496
5550 5552 5553 5555 5557 5558 5559 5561 5561 5561 5561 5561 5562 5560 5559 5558 5557 5555 5553 5550 5547 5544 5540 5539 5536 5534 5531 5528 5526 5523 5520 5518 5515 5513 5511 5508 5505 5503 5499 5496 5493 5489 5486
5540 5542 5545 5546 5548 5549 5551 5552 5552 5553 5553 5552 5552 5551 5550 5550 5548 5547 5544 5542 5539 5536 5533 5531 5528 5526 5522 5520 5517 5514 5512 5510 5507 5504 5502 5500 5497 5493 5490 5486 5482 5479 5476
5531 5533 5535 5537 5539 5541 5542 5543 5543 5544 5544 5543 5543 5542 5542 5541 5539 5538 5536 5533 5531 5528 5525 5523 5520 5517 5514 5511 5509 5507 5504 5502 5499 5497 5494 5491 5488 5484 5481 5476 5473 5469 5466
5522 5524 5526 5528 5530 5532 5533 5534 5535 5536 5536 5536 5535 5534 5534 5533 5531 5529 5527 5525 5523 5520 5518 5515 5512 5509 5506 5503 5501 5499 5496 5494 5491 5489 5487 5483 5479 5475 5471 5467 5464 5460 5458
5513 5515 5517 5519 5521 5523 5525 5526 5526 5527 5527 5527 5527 5526 5526 5525 5523 5521 5520 5518 5515 5512 5509 5506 5503 5501 5498 5495 5492 5490 5488 5486 5483 5481 5478 5475 5471 5466 5462 5459 5456 5452 5450
5503 5506 5507 5509 5512 5514 5515 5516 5518 5518 5518 5518 5517 5517 5518 5517 5516 5514 5513 5510 5508 5505 5501 5498 5495 5492 5490 5486 5483 5480 5479 5478 5475 5472 5469 5467 5463 5459 5455 5451 5448 5445 5442
5493 5496 5498 5500 5502 5505 5506 5508 5509 5509 5510 5509 5509 5509 5509 5509 5507 5506 5504 5502 5501 5498 5494 5491 5488 5485 5482 5478 5475 5472 5470 5469 5467 5464 5460 5459 5455 5452 5448 5444 5441 5438 5436
5484 5486 5489 5491 5493 5495 5497 5499 5500 5500 5501 5500 5501 5501 5501 5500 5499 5497 5495 5493 5491 5489 5487 5485 5481 5478 5475 5472 5468 5465 5462 5459 5457 5454 5451 5451 5448 5445 5442 5438 5435 5432 5430
5474 5476 5479 5481 5483 5486 5488 5490 5491 5492 5492 5493 5493 5493 5493 5492 5491 5489 5487 5485 5483 5480 5479 5477 5474 5471 5468 5465 5462 5459 5455 5452 5450 5446 5442 5440 5440 5438 5436 5433 5430 5427 5425
5464 5466 5469 5472 5474 5476 5479 5481 5482 5483 5484 5484 5484 5485 5485 5483 5483 5482 5480 5477 5475 5472 5469 5468 5466 5463 5461 5457 5454 5451 5447 5445 5443 5440 5435 5432 5431 5430 5430 5428 5426 5422 5420
5455 5457 5460 5463 5466 5468 5471 5473 5474 5475 5475 5476 5476 5476 5476 5475 5475 5473 5472 5469 5466 5463 5461 5460 5458 5455 5452 5449 5446 5442 5440 5437 5434 5432 5429 5425 5423 5421 5422 5423 5421 5418 5416